Погода Александровский Завод

Погода Александровский Завод : погода сейчас, прогноз погоды и архив. Всё, что Вы хотите узнать о погоде Александровский Завод!

Хотите узнать прогноз погоды Александровский Завод? Тогда Вам сюда: Погода Александровский Завод

Поиск расширенной информации на нашем сайте:

Другие новости

Новости СМИ2

Главная страница сайта

Новости сайта

03.07.2017

Напоминаем, что на нашем специализированном сайте Метеоцентр.Азия вы можете получить высокодетализированные автоматические прогнозы погоды по пунктам России, СНГ и мира в авиационном формате (включающие направление и скорость ветра, видимость, явления погоды, количество и форму облачности, нижнюю и верхнюю границу облачности).

Рекомендуем: Смотрите информацию обивка вагонкой цена на нашем сайте.

Погода Александровский Завод - сегодня

Время (UTC), дата Ветер
(°,м/с) 
Видим.   Явления Облачность Т
(°С)
Тd
(°С)
f(%) Тe
(°С)
Pmin
(гПа)
dP
(гПа)
Po
(мм)
O2
(г/м3)
Тmin Tmax R s Состояние
почвы
15 20.07.17 190 (Ю) 20000 м    ясно 
+7.4 +6.7 95 +8  1012.4  1.4  689  269           
18 20.07.17 200 (Ю) 20000 м    ясно 
+5.2 +4.7 97 +6  1014.2  0.9  690  272           
21 20.07.17 тихо ()   0200 м  туман  ?/?  
+6 +5.6 97 +6  1014.2  0.3  690  271           
00 21.07.17 тихо ()   0500 м  туман  н/о 
+9.8 +9.4 97 +12  1013.7  0.8  691  267  +5.1        влажная 
03 21.07.17 130 (ЮВ) 20000 м  {туман}  5/3 600 м верхняя 
[Cu med, cong|Ci fib]
+21.4 +10.9 51 +26  1009.3  -0.6  690  256           
06 21.07.17 170 (Ю) 20000 м  {туман}  8/3 600 м верхняя 
[Cu med, cong|Cs]
+21.7 +11.6 53 +27  1007.8  -1.2  689  255           
09 21.07.17 170 (Ю) 4000 м  слаб. ливневой дождь  10/10 600 м кучево-дожд. 
[Cb cap]
+17.3 +15.1 87 +30  1009.1  689  258           
12 21.07.17 180 (Ю) 10 км  слаб. ливневой дождь  10/10 600 м кучево-дожд. 
[Cb cap]
+15.4 +13.2 87 +23  1008.1  -1.6  688  260    +22.2  0.7     
15 21.07.17 210 (ЮЗ) 20000 м  {гроза, ливн. осадки}  10/10 600 м кучево-дожд. 
[Cb cap]
+13.7 +12.8 94 +21  1009.4  0.7  689  262           
18 21.07.17 160 (Ю) 20000 м  {гроза, ливн. осадки}  3/0 средняя 
[Ac cuf]
+10.5 +9.7 95 +14  1009.7  -0.7  688  265           
21 21.07.17 220 (ЮЗ) 20000 м    3/3 600 м 
[Sc diur, vesp]
+7.4 +6.8 96 +8  1010.8  688  269           
00 22.07.17 280 (З) 20000 м    6/6 600 м 
[Cu med, cong]
+16.6 +13.4 81 +25  1007  -0.5  688  258  +6.3    12    влажная 
03 22.07.17 270 (З) 20000 м    8/8 600 м 
[Cu med, cong]
+20.2 +12.4 61 +27  1005.4  -0.4  688  255           
06 22.07.17 270 (З) 4{10}  20000 м    6/6 600 м 
[Cu med, cong]
+21.9 +11.5 52 +27  1003.6  -1.2  687  254           
09 22.07.17 280 (З) 5{12}  20000 м    8/3 600 м верхняя 
[Cu med, cong|Ci fib]
+21.5 +10.8 50 +26  1003.5  -0.2  686  254           
12 22.07.17 270 (З) 1{10}  20000 м    8/6 600 м верхняя 
[Cu med, cong|Ci ing]
+17.4 +11.5 68 +24  1005.1  0.3  687  258    +21.9       
15 22.07.17 220 (ЮЗ) 20000 м    6/0 средняя 
[Ac lent]
+10 +9 93 +12  1007.9  0.2  687  265           
18 22.07.17 220 (ЮЗ) 20000 м    4/0 средняя 
[Ac lent]
+11.4 +9.5 88 +15  1006.9  -0.4  687  264           
21 22.07.17 200 (Ю) 20000 м    10/10 600 м кучево-дожд. 
[Cb cap]
+8.5 +7.9 96 +10  1008.5  0.4  687  267           
00 23.07.17 040 (СВ) 20000 м    10/10 600 м кучево-дожд. 
[Cb cap]
+15.1 +12.5 84 +23  1006.4  0.3  687  260  +6.5        влажная 
06 23.07.17 020 (С) 6-10{11}  20000 м  {ливн. осадки}  8/8 600 м 
[Cu med, cong]
+17.5 +10.9 65 +21  1007  0.5  688  258           
09 23.07.17 010 (С) 4{10}  20000 м    8/8 600 м 
[Cu med, cong]
+16.8 +7.4 54 +17  1007.6  0.2  688  260           
12 23.07.17 020 (С) 20000 м    8/0 средняя 
[Ac lent]
+13.5 +7.6 67 +14  1010  0.2  689  263    +19  0.0     
15 23.07.17 220 (ЮЗ) 20000 м    3/0 средняя 
[Ac lent]
+4.8 +3.7 93 +6  1014.8  1.6  690  273           
18 23.07.17 230 (ЮЗ) 20000 м    ясно 
+1.3 +0.5 94 +2  1016.9  0.7  691  277           
Время (UTC), дата Ветер
(°,м/с) 
Видим.   Явления Облачность Т
(°С)
Тd
(°С)
f(%) Тe
(°С)
Pmin
(гПа)
dP
(гПа)
Po
(мм)
O2
(г/м3)
Тmin Tmax R s Состояние
почвы

Для получения пояснительной информации подведите курсор к названию столбца.

ПОГОДА Александровский Завод - архив

Всё, что Вы хотите узнать о погоде Александровский Завод - удобно и подробно!

Выберите нужную дату (начиная с 1 января 2015* года) и нажмите кнопку "Найти".
Будут отображены архивные сводки погоды по пункту Александровский Завод, начиная с указанной даты.


Отображать данные в формате CSV (для использования в таблицах Excel)


Внимание! Наш архив погоды предназначен исключительно для личного некоммерческого использования в познавательных целях. Если Вам необходимы официальные справки о состоянии погоды (для производственных, юридических, коммерческих и т.п. целей), обращайтесь в органы Росгидромета.

*Примечание: данная дата относится к архиву по метеостанциям СССР (Россия, СНГ, Балтия).
Архив по метеостанциям Зарубежной Европы и Азии (кроме Китая) хранится 10 дней, по другим регионам земного шара (Китай, Африка, Америка, Австралия, Океания) - 1 день.

Александровский Завод - район местоположения метеостанции


Название, широта, долгота, высота метеостанции:
Александровский Завод 50.9°ш. 117.9°д. 807 м над ур. моря [Российская Федерация]

Дополнительная информация

В oтличие oт бoльшинства пoгoдных сайтoв мы публикуем пoдрoбную метеoинфoрмацию в детальнoм прoфессиoнальнoм фoрмате.

Характеристики температуры и влажнoсти вoздуха измеряются на высoте 2 м в тени вдали oт зданий и деревьев.
Скoрoсть ветра измеряется на высoте 10 м (на урoвне рoста челoвека скoрoсть ветра ниже в 1.5-2 раза). Если метеoстанция нахoдится в гoрoде или в лесу, тo скoрoсть ветра занижена на 2-4 м/с пo сравнению с oткрытым местoм. Скoрoсть ветра над акватoриями крупных рек и oзёр, а также на вершинах хoлмoв на 2-5 м/с выше, чем в oбычных услoвиях.
Атмoсфернoе давление в разных тoчках местнoсти мoжет значительнo oтличаться oт давления на метеoстанции, в зависимoсти oт услoвий рельефа (при пoдъёме на 10 м давление пoнижается примернo на 1 мм рт.ст.).